Regional Weather Roundup
Issued by NWS Northern Indiana

Home | Current Version | Previous Version | Graphics & Text | Print | Product List | Glossary On
Versions: 1 2 3 4 5 6 7 8 9 10 11 12 13 14 15 16 17 18 19 20 21 22 23 24 25 26 27 28 29 30 31 32 33 34 35 36 37 38 39 40 41 42 43 44 45 46 47 48 49 50
574
ASUS43 KIWX 311200
RWRIWX

KIWX WEATHER ROUNDUP
NATIONAL WEATHER SERVICE NORTHERN INDIANA
800 AM EDT WED AUG 31 2016

NOTE: "FAIR" INDICATES FEW OR NO CLOUDS BELOW 12,000 FEET WITH NO
SIGNIFICANT WEATHER AND/OR OBSTRUCTIONS TO VISIBILITY.

* THESE STATIONS ARE NOT UNDER NWS QUALITY CONTROL. THEY ALSO MAY NOT
  REPORT WEATHER SUCH AS PRECIPITATION OR FOG.

INZ001>027-311300-
NORTHERN INDIANA

CITY           SKY/WX    TMP DP  RH WIND       PRES   REMARKS
GARY*          CLOUDY    73  72  94 W7        30.05R
KNOX*            N/A     68  59  73 CALM      30.03R VSB<1/4
SOUTH BEND     MOCLDY    69  69 100 CALM      30.03R FOG
6HR MIN TEMP:  69; 6HR MAX TEMP:  71;

ELKHART*       FOG      N/A N/A N/A CALM      30.02S VSB 1/2
GOSHEN         CLOUDY    70  68  93 CALM      30.02S FOG
6HR MIN TEMP:  69; 6HR MAX TEMP:  71;

MONTICELLO*    CLOUDY    69  65  88 CALM      30.03R FOG
6HR MIN TEMP:  69; 6HR MAX TEMP:  71;

ANGOLA*        CLOUDY    70  63  78 CALM      30.03R
FORT WAYNE     CLOUDY    70  68  93 W3        30.03R FOG
6HR MIN TEMP:  68; 6HR MAX TEMP:  70;


$$
INZ028>050-311300-
CENTRAL INDIANA

CITY           SKY/WX    TMP DP  RH WIND       PRES   REMARKS
LAFAYETTE      FOG       70  70 100 CALM      30.03R VSB 3/4
6HR MIN TEMP:  69; 6HR MAX TEMP:  71;

KOKOMO*        MOCLDY    70  70 100 NW5       30.03S
6HR MIN TEMP:  66; 6HR MAX TEMP:  70;

MUNCIE*        MOCLDY    71  69  93 MISG      30.04R FOG
6HR MIN TEMP:  69; 6HR MAX TEMP:  71;

INDIANAPOLIS   PTCLDY    70  69  97 W5        30.03S
6HR MIN TEMP:  69; 6HR MAX TEMP:  72;


$$
MIZ043>046-050>051-056>058-064>065-071>073-077>080-311300-
SOUTHWEST LOWER MICHIGAN

CITY           SKY/WX    TMP DP  RH WIND       PRES   REMARKS
BATTLE CREEK   CLOUDY    69  69 100 N6        30.04R FOG
6HR MIN TEMP:  68; 6HR MAX TEMP:  69;

BENTON HARBOR  PTCLDY    70  67  90 CALM      30.02R FOG
6HR MIN TEMP:  70; 6HR MAX TEMP:  73;

COLDWATER*     FOG       69  69 100 CALM      30.03R VSB 1/2
6HR MIN TEMP:  68; 6HR MAX TEMP:  69;

HILLSDALE*     CLOUDY    69  68  96 NW3       30.03R FOG
6HR MIN TEMP:  51; 6HR MAX TEMP:  84;

HOLLAND        CLOUDY    72  70  93 N3        30.04R FOG
6HR MIN TEMP:  68; 6HR MAX TEMP:  72;

GRAND RAPIDS   CLOUDY    71  68  90 NE6       30.04R FOG
6HR MIN TEMP:  70; 6HR MAX TEMP:  72;

KALAMAZOO      CLOUDY    72  68  87 N6        30.03R FOG
6HR MIN TEMP:  70; 6HR MAX TEMP:  72;

STURGIS*       CLOUDY    70  68  95 CALM      30.02S FOG
6HR MIN TEMP:  69; 6HR MAX TEMP:  70;

THREE RIVERS*  FOG       70  70 100 CALM      30.03S VSB 1/2
6HR MIN TEMP:  69; 6HR MAX TEMP:  71;


$$
OHZ001>008-015>018-024>025-311300-
NORTHWEST OHIO

CITY           SKY/WX    TMP DP  RH WIND       PRES   REMARKS
DEFIANCE       CLOUDY    70  68  93 CALM      30.03R FOG
6HR MIN TEMP:  68; 6HR MAX TEMP:  71;

FINDLAY        FOG       70  67  90 S3        30.02R VSB 1/4
6HR MIN TEMP:  69; 6HR MAX TEMP:  72;

TOLEDO EXPRESS CLOUDY    68  68 100 SW6       30.01S FOG
6HR MIN TEMP:  67; 6HR MAX TEMP:  71;

TOLEDO METCALF CLOUDY    70  70 100 SW6       30.01S FOG
6HR MIN TEMP:  70; 6HR MAX TEMP:  73;

LIMA           CLOUDY    68  68 100 S3        30.03S FOG
6HR MIN TEMP:  67; 6HR MAX TEMP:  69; 6HR PCP: TRACE;


$$
AND FOR LAKE MICHIGAN COASTAL AND OPEN LAKE BUOY OBSERVATIONS

STATION/POSITION TEMP    WIND        PRES    VSBY  WAVE
                 AIR SEA DIR/SP/G                  HT/PER
                 (F)     (DEG/KT/KT) (MB)    (MI)  (FT/S)
CALUMET HARBOR    71     320/  7/ 19 1016.6R
MICHIGAN CITY     72     310/  8/  9   N/A
BURNS HARBOR      74     350/  6/  9 1017.3R
SAINT JOSEPH      72     350/  3/  7 1017.3R
SOUTH LAKE BUOY   72 75   20/ 17/ 19 1015.5          3/ 4
4 MI NW BRIDGMAN  74 74  320/  6/  8 1015.8S         1/ 3
MICHIGAN CITY     73 69  330/  8/ 10   N/A           1/ 3

$$
&&




USA.gov is the U.S. government's official web portal to all federal, state and local government web resources and services.